DW4839 Weather Reports


time (UTC)temp
F
wind
direction
speed
knots
gust
knots
rain 1hr
in
rain 24hr
in
rain mn
in
humidity
%
barometer
mb
20260831230057 81 0 0.9 6.1 0.00 0.00 0.00 38 1008.3
20260831224555 80 262 2.6 4.3 0.00 0.00 0.00 41 1008.6
20260831223058 81 15 0.9 2.6 0.00 0.00 0.00 40 1008.6
20260831221604 79 187 1.7 4.3 0.00 0.00 0.00 40 1008.7
20260831220116 78 267 1.7 5.2 0.00 0.00 0.00 43 1009.0
20260831214559 79 22 0.9 5.2 0.00 0.00 0.00 44 1009.1
20260831213101 78 62 0.9 3.5 0.00 0.00 0.00 45 1009.2
20260831211612 78 333 0.9 4.3 0.00 0.00 0.00 45 1009.2
20260831210103 78 46 2.6 6.1 0.00 0.00 0.00 46 1009.4
20260831204559 76 331 1.7 6.1 0.00 0.00 0.00 44 1009.3
20260831203053 76 9 1.7 3.5 0.00 0.00 0.00 48 1009.5
20260831201608 75 42 1.7 6.1 0.00 0.00 0.00 49 1009.6
20260831200106 74 334 1.7 5.2 0.00 0.00 0.00 51 1009.7
20260831194635 73 88 1.7 7.0 0.00 0.00 0.00 49 1010.0
20260831193102 73 50 2.6 6.1 0.00 0.00 0.00 52 1010.0
20260831191602 72 34 1.7 4.3 0.00 0.00 0.00 53 1010.3
20260831190120 72 75 2.6 7.0 0.00 0.00 0.00 57 1010.5
20260831184631 70 40 2.6 9.6 0.00 0.00 0.00 57 1010.7
20260831183107 69 63 4.3 7.8 0.00 0.00 0.00 58 1011.0
20260831181559 69 68 4.3 7.0 0.00 0.00 0.00 61 1011.1
20260831180103 67 54 3.5 7.0 0.00 0.00 0.00 62 1011.2
20260831174612 66 18 2.6 7.0 0.00 0.00 0.00 63 1011.3
20260831173107 65 24 2.6 7.0 0.00 0.00 0.00 66 1011.2
20260831171555 64 14 1.7 5.2 0.00 0.00 0.00 71 1011.4
20260831164606 62 352 1.7 7.0 0.00 0.00 0.00 72 1011.5
20260831163103 60 347 2.6 7.0 0.00 0.00 0.00 78 1011.5
20260831161607 59 53 2.6 7.8 0.00 0.00 0.00 80 1011.6
20260831160109 59 352 1.7 7.0 0.00 0.00 0.00 81 1011.7
20260831154621 57 28 2.6 7.0 0.00 0.00 0.00 84 1011.7
20260831153104 56 14 3.5 7.0 0.00 0.00 0.00 85 1011.7
20260831151605 55 24 2.6 7.0 0.00 0.00 0.00 86 1011.8
20260831150058 55 351 3.5 7.0 0.00 0.00 0.00 88 1011.8
20260831144630 54 360 4.3 7.8 0.00 0.00 0.00 89 1011.8
20260831143101 53 13 4.3 7.8 0.00 0.00 0.00 90 1011.9
20260831141605 53 360 4.3 7.0 0.00 0.00 0.00 90 1012.0
20260831140057 52 345 3.5 7.0 0.00 0.00 0.00 90 1011.9
20260831134600 52 346 3.5 5.2 0.00 0.00 0.00 90 1012.0
20260831133107 53 347 4.3 7.8 0.00 0.00 0.00 90 1012.0
20260831131603 53 9 3.5 7.8 0.00 0.00 0.00 90 1012.0
20260831130116 53 339 3.5 8.7 0.00 0.00 0.00 89 1012.1
20260831124604 53 360 4.3 8.7 0.00 0.00 0.00 89 1012.2
20260831123105 53 345 3.5 7.8 0.00 0.00 0.00 89 1012.3
20260831121601 53 352 4.3 7.8 0.00 0.00 0.00 89 1012.5
20260831120057 54 342 3.5 5.2 0.00 0.00 0.00 89 1012.5
20260831114605 54 352 3.5 7.0 0.00 0.00 0.00 89 1012.6
20260831113107 54 344 3.5 6.1 0.00 0.00 0.00 89 1012.8
20260831111612 54 360 2.6 7.0 0.00 0.00 0.00 88 1013.0
20260831110151 54 11 3.5 5.2 0.00 0.00 0.00 88 1013.1
20260831104600 54 22 3.5 5.2 0.00 0.00 0.00 88 1013.2
20260831103101 55 9 3.5 7.0 0.00 0.00 0.00 87 1013.2
20260831101605 55 350 3.5 7.8 0.00 0.00 0.00 87 1013.1
20260831100104 55 352 3.5 7.8 0.00 0.00 0.00 87 1013.2
20260831094602 56 346 2.6 7.0 0.00 0.00 0.00 87 1013.4
20260831093103 55 345 3.5 5.2 0.00 0.00 0.00 86 1013.6
20260831091557 56 345 3.5 7.0 0.00 0.00 0.00 86 1013.7
20260831084606 56 343 3.5 7.0 0.00 0.00 0.00 85 1013.9
20260831083105 57 344 3.5 6.1 0.00 0.00 0.00 85 1014.1
20260831081634 57 352 3.5 7.0 0.00 0.00 0.00 84 1014.2
20260831074607 57 350 2.6 5.2 0.00 0.00 0.00 84 1014.5
20260831073210 57 352 2.6 7.0 0.00 0.00 0.00 83 1014.6
20260831071601 57 9 3.5 7.0 0.00 0.00 0.00 82 1014.7
20260831064607 58 350 3.5 7.0 0.00 0.00 0.00 81 1015.1
20260831063056 58 349 4.3 7.0 0.00 0.00 0.00 81 1015.1
20260831061604 59 351 3.5 9.6 0.00 0.00 0.00 80 1015.3
20260831060115 59 360 4.3 8.7 0.00 0.00 0.00 79 1015.4
20260831054559 59 9 3.5 8.7 0.00 0.00 0.00 78 1015.5
20260831053104 60 352 3.5 9.6 0.00 0.00 0.00 77 1015.7
20260831051559 60 352 3.5 8.7 0.00 0.00 0.00 76 1015.9
20260831050137 60 341 3.5 8.7 0.00 0.00 0.00 75 1016.1
20260831044604 60 14 4.3 10.4 0.00 0.00 0.00 75 1016.2
20260831043100 60 329 2.6 7.8 0.00 0.00 0.00 74 1016.3
20260831041555 61 9 3.5 7.0 0.00 0.00 0.00 73 1016.3
20260831034600 61 340 2.6 7.8 0.00 0.00 0.00 70 1016.4
20260831033059 62 339 2.6 5.2 0.00 0.00 0.00 70 1016.4
20260831031601 62 5 2.6 7.0 0.00 0.00 0.00 68 1016.5
20260831030106 62 322 1.7 5.2 0.00 0.00 0.00 67 1016.5
20260831024602 63 350 3.5 9.6 0.00 0.00 0.00 66 1016.5
20260831023056 63 54 2.6 7.8 0.00 0.00 0.00 65 1016.6
20260831021604 63 352 2.6 8.7 0.00 0.00 0.00 64 1016.6
20260831020055 64 34 2.6 4.3 0.00 0.00 0.00 63 1016.7
20260831014604 64 348 1.7 7.0 0.00 0.00 0.00 62 1016.7
20260831013100 65 340 5.2 10.4 0.00 0.00 0.00 60 1016.9
20260831011604 65 341 3.5 9.6 0.00 0.00 0.00 59 1017.0
20260831010104 65 343 2.6 7.0 0.00 0.00 0.00 58 1017.2
20260831004616 66 352 2.6 10.4 0.00 0.00 0.00 58 1017.5
20260831003105 66 339 2.6 10.4 0.00 0.00 0.00 56 1017.4
20260831001604 67 36 3.5 8.7 0.00 0.00 0.00 56 1017.6
20260831000104 67 344 4.3 9.6 0.00 0.00 0.00 54 1017.7
20260830234601 68 84 3.5 7.8 0.00 0.00 0.00 54 1017.8
20260830233108 68 21 1.7 8.7 0.00 0.00 0.00 52 1017.8
20260830231603 68 22 3.5 10.4 0.00 0.00 0.00 54 1018.0